Poteau, OK

5:19 AM CDT on October 01, 2016 (GMT -0500)
Kerr

Weather History for KRKR - April, 2013

Change the Weather History Date:

Wednesday, April 10, 2013

  Actual Average (KFSM) Record (KFSM)
Temperature  
Mean Temperature 60 °F 60 °F  
Max Temperature 78 °F 72 °F 91 °F (1943)
Min Temperature 41 °F 48 °F 30 °F (2003)
Degree Days  
Heating Degree Days 6 6  
Month to date heating degree days 73  
Since 1 July heating degree days 3132  
Cooling Degree Days 0 1  
Month to date cooling degree days 10  
Year to date cooling degree days 22  
Growing Degree Days 10 (Base 50)    
Moisture  
Dew Point 47 °F    
Average Humidity 89    
Maximum Humidity 100    
Minimum Humidity 69    
Precipitation  
Precipitation 0.61 in 0.14 in 1.91 in (2008)
Month to date precipitation 1.31  
Year to date precipitation 10.73  
Sea Level Pressure  
Sea Level Pressure 29.86 in    
Wind  
Wind Speed 9 mph (SW)    
Max Wind Speed 24 mph    
Max Gust Speed 32 mph    
Visibility 9 miles    
Events Rain , Thunderstorm    
T = Trace of Precipitation, MM = Missing Value Source: NWS Daily Summary

Daily Weather History Graph

Daily Weather History Graph

Search for Another Location

Airport or City:

Trip Planner

Search our weather history database for the weather conditions in past years. The results will help you decide how hot, cold, wet, or windy it might be!

Date:

Astronomy

Apr. 10, 2013 Rise Set
Actual Time 6:52 AM CDT 7:47 PM CDT
Civil Twilight 6:26 AM CDT 8:13 PM CDT
Nautical Twilight 5:56 AM CDT 8:43 PM CDT
Astronomical Twilight 5:24 AM CDT 9:15 PM CDT
Moon 6:50 AM CDT (4/10) 8:21 PM CDT (4/10)
Length of Visible Light 13h 46m
Length of Day
12h 54m
New Moon, 0% of the Moon is Illuminated
Apr 10
New Moon
Apr 18
First Quarter
Apr 25
Full
May 2
Last Quarter
May 9
New

Hourly Weather History & Observations

Time (CDT) Temp. Windchill Dew Point Humidity Pressure Visibility Wind Dir Wind Speed Gust Speed Precip Events Conditions
12:15 AM 78.8 °F - 68.0 °F 69% 29.76 in 10.0 mi South 12.7 mph 20.7 mph N/A   Overcast
12:35 AM 78.8 °F - 68.0 °F 69% 29.75 in 10.0 mi South 23.0 mph 28.8 mph N/A   Mostly Cloudy
12:55 AM 78.8 °F - 68.0 °F 69% 29.76 in 10.0 mi South 15.0 mph 24.2 mph N/A   Overcast
1:15 AM 77.0 °F - 68.0 °F 74% 29.76 in 10.0 mi South 13.8 mph 21.9 mph N/A   Overcast
1:35 AM 77.0 °F - 68.0 °F 74% 29.75 in 10.0 mi South 13.8 mph 21.9 mph N/A   Overcast
1:55 AM 77.0 °F - 68.0 °F 74% 29.75 in 10.0 mi South 9.2 mph 21.9 mph N/A   Overcast
2:15 AM 77.0 °F - 68.0 °F 74% 29.74 in 10.0 mi South 16.1 mph 23.0 mph N/A   Overcast
2:55 AM 77.0 °F - 68.0 °F 74% 29.73 in 10.0 mi South 17.3 mph 27.6 mph N/A   Overcast
3:15 AM 77.0 °F - 68.0 °F 74% 29.75 in 10.0 mi South 16.1 mph 23.0 mph N/A   Overcast
3:35 AM 77.0 °F - 68.0 °F 74% 29.75 in 10.0 mi South 13.8 mph 19.6 mph N/A   Overcast
3:55 AM 75.2 °F - 66.2 °F 73% 29.76 in 10.0 mi West 5.8 mph - N/A   Overcast
4:15 AM 62.6 °F - 55.4 °F 77% 29.77 in 10.0 mi Calm Calm - N/A Thunderstorm Overcast
4:35 AM 59.0 °F - 53.6 °F 82% 29.76 in 10.0 mi East 5.8 mph - N/A   Overcast
4:55 AM 57.2 °F - 51.8 °F 82% 29.77 in 10.0 mi East 4.6 mph - N/A   Overcast
5:15 AM 55.4 °F - 51.8 °F 88% 29.80 in 10.0 mi South 3.5 mph - N/A Thunderstorm Overcast
5:35 AM 55.4 °F - 51.8 °F 88% 29.80 in 10.0 mi SSE 8.1 mph - N/A Rain Light Rain
5:55 AM 51.8 °F - 50.0 °F 94% 29.83 in 7.0 mi SSE 5.8 mph - N/A Rain , Thunderstorm Rain
6:15 AM 51.8 °F - 50.0 °F 94% 29.84 in 7.0 mi ENE 5.8 mph - 0.01 in Rain Rain
6:35 AM 51.8 °F - 50.0 °F 94% 29.83 in 10.0 mi East 8.1 mph - 0.01 in Rain Light Rain
6:55 AM 50.0 °F - 50.0 °F 100% 29.83 in 10.0 mi East 4.6 mph - 0.01 in   Overcast
7:15 AM 51.8 °F - 50.0 °F 94% 29.83 in 10.0 mi ESE 4.6 mph - N/A Thunderstorm Overcast
7:35 AM 51.8 °F - 50.0 °F 94% 29.83 in 10.0 mi Calm Calm - N/A   Overcast
7:55 AM 51.8 °F - 50.0 °F 94% 29.85 in 10.0 mi Calm Calm - N/A   Overcast
8:15 AM 51.8 °F - 50.0 °F 94% 29.84 in 10.0 mi Calm Calm - N/A   Overcast
8:35 AM 51.8 °F - 50.0 °F 94% 29.88 in 10.0 mi WSW 18.4 mph 24.2 mph N/A   Overcast
8:55 AM 48.2 °F - 46.4 °F 93% 29.86 in 10.0 mi WSW 9.2 mph - N/A Rain Rain
9:15 AM 50.0 °F - 48.2 °F 94% 29.87 in 10.0 mi Calm Calm - N/A   Overcast
9:35 AM 50.0 °F - 50.0 °F 100% 29.88 in 7.0 mi Calm Calm - 0.01 in Rain Light Rain
9:55 AM 48.2 °F - 46.4 °F 93% 29.89 in 4.0 mi Calm Calm - 0.04 in Rain Rain
10:35 AM 50.0 °F - 50.0 °F 100% 29.88 in 10.0 mi ESE 4.6 mph - N/A   Overcast
10:55 AM 50.0 °F - 48.2 °F 94% 29.89 in 10.0 mi WSW 4.6 mph - N/A   Overcast
11:15 AM 44.6 °F 39.7 °F 42.8 °F 93% 29.89 in 10.0 mi West 9.2 mph - N/A Thunderstorm Overcast
11:35 AM 44.6 °F 43.1 °F 42.8 °F 93% 29.89 in 7.0 mi WSW 3.5 mph - 0.01 in   Unknown
12:15 PM 46.4 °F 45.2 °F 44.6 °F 93% 29.88 in 10.0 mi East 3.5 mph - N/A   Overcast
12:35 PM 46.4 °F - 44.6 °F 93% 29.87 in 10.0 mi Calm Calm - N/A   Overcast
12:55 PM 44.6 °F 41.4 °F 44.6 °F 100% 29.87 in 10.0 mi SSW 5.8 mph - N/A Thunderstorm Overcast
1:15 PM 44.6 °F 39.7 °F 42.8 °F 93% 29.88 in 5.0 mi West 9.2 mph 21.9 mph N/A Thunderstorm Overcast
1:35 PM 42.8 °F 37.5 °F 42.8 °F 100% 29.89 in 5.0 mi WNW 9.2 mph - N/A Thunderstorm Overcast
1:55 PM 42.8 °F 40.1 °F 41.0 °F 93% 29.88 in 4.0 mi WNW 4.6 mph - N/A Rain , Thunderstorm Light Thunderstorms and Rain
2:15 PM 42.8 °F 41.1 °F 42.8 °F 100% 29.87 in 3.0 mi ENE 3.5 mph - N/A Rain Rain
2:35 PM 42.8 °F 39.3 °F 41.0 °F 93% 29.86 in 10.0 mi NNW 5.8 mph - N/A   Overcast
2:55 PM 42.8 °F 35.4 °F 41.0 °F 93% 29.90 in 5.0 mi WSW 15.0 mph 19.6 mph 0.02 in Rain , Thunderstorm Thunderstorms and Rain
3:15 PM 41.0 °F 30.9 °F 41.0 °F 100% 29.95 in 7.0 mi WSW 24.2 mph 32.2 mph 0.04 in Rain , Thunderstorm Light Thunderstorms and Rain
3:35 PM 41.0 °F 34.7 °F 41.0 °F 100% 29.89 in 1.0 mi West 10.4 mph - 0.38 in Rain , Thunderstorm Light Thunderstorms and Rain
3:55 PM 41.0 °F 35.8 °F 39.2 °F 93% 29.90 in 2.5 mi SW 8.1 mph - 0.46 in Thunderstorm Unknown
4:15 PM 41.0 °F 35.8 °F 41.0 °F 100% 29.92 in 3.0 mi SSW 8.1 mph - 0.05 in Rain , Thunderstorm Thunderstorms and Rain
4:35 PM 41.0 °F 39.0 °F 39.2 °F 93% 29.88 in 10.0 mi West 3.5 mph - 0.05 in Thunderstorm Thunderstorm
4:55 PM 41.0 °F - 39.2 °F 93% 29.88 in 10.0 mi Calm Calm - 0.05 in Thunderstorm Thunderstorm
5:15 PM 42.8 °F - 41.0 °F 93% 29.86 in 10.0 mi Calm Calm - N/A Thunderstorm Thunderstorm
5:35 PM 42.8 °F - 41.0 °F 93% 29.88 in 10.0 mi Calm Calm - 0.01 in Rain , Thunderstorm Light Thunderstorms and Rain
5:55 PM 42.8 °F 39.3 °F 41.0 °F 93% 29.89 in 10.0 mi West 5.8 mph - 0.01 in Rain Light Rain
6:15 PM 41.0 °F 39.0 °F 41.0 °F 100% 29.87 in 10.0 mi West 3.5 mph - 0.01 in Rain Light Rain
6:35 PM 42.8 °F 37.5 °F 39.2 °F 87% 29.87 in 10.0 mi West 9.2 mph - 0.01 in   Overcast
6:55 PM 41.0 °F 33.9 °F 39.2 °F 93% 29.87 in 10.0 mi West 12.7 mph 18.4 mph 0.01 in   Overcast
7:15 PM 41.0 °F 34.7 °F 39.2 °F 93% 29.89 in 10.0 mi West 10.4 mph 18.4 mph N/A   Overcast
7:35 PM 41.0 °F 37.1 °F 37.4 °F 87% 29.89 in 10.0 mi WNW 5.8 mph - N/A   Overcast
7:55 PM 41.0 °F - 37.4 °F 87% 29.89 in 10.0 mi Calm Calm - N/A   Overcast
8:15 PM 41.0 °F - 37.4 °F 87% 29.90 in 10.0 mi Calm Calm - N/A   Overcast
8:35 PM 41.0 °F 37.1 °F 37.4 °F 87% 29.90 in 10.0 mi West 5.8 mph - N/A   Overcast
8:55 PM 41.0 °F 38.0 °F 39.2 °F 93% 29.90 in 10.0 mi West 4.6 mph - N/A   Overcast
9:15 PM 41.0 °F 37.1 °F 39.2 °F 93% 29.92 in 10.0 mi West 5.8 mph - N/A   Overcast
9:35 PM 41.0 °F 33.9 °F 39.2 °F 93% 29.92 in 10.0 mi West 12.7 mph 17.3 mph N/A   Overcast
9:55 PM 41.0 °F 33.9 °F 37.4 °F 87% 29.92 in 10.0 mi West 12.7 mph 18.4 mph N/A   Mostly Cloudy
10:15 PM 41.0 °F 34.7 °F 37.4 °F 87% 29.92 in 10.0 mi West 10.4 mph - N/A   Overcast
10:35 PM 41.0 °F 35.8 °F 37.4 °F 87% 29.93 in 10.0 mi West 8.1 mph - N/A   Overcast
10:55 PM 41.0 °F 35.8 °F 37.4 °F 87% 29.94 in 10.0 mi West 8.1 mph - N/A   Overcast
11:15 PM 41.0 °F 36.4 °F 37.4 °F 87% 29.94 in 10.0 mi West 6.9 mph 16.1 mph N/A   Overcast
11:35 PM 41.0 °F 36.4 °F 37.4 °F 87% 29.95 in 10.0 mi West 6.9 mph - N/A   Overcast
11:55 PM 41.0 °F 35.8 °F 37.4 °F 87% 29.95 in 10.0 mi WNW 8.1 mph - N/A   Overcast